Terminal Aerodrome Forecast
Issued by NWS Boston, MA

Home | Current Version | Previous Version | Text Only | Print | Product List | Glossary Off
Versions: 1 2 3 4 5 6 7 8 9 10 11 12 13 14 15 16 17 18 19 20 21 22 23 24 25 26 27 28 29 30 31 32 33 34 35 36 37 38 39 40 41 42
000 FTUS41 KBOX 020821 AAA TAFBOS TAF AMD KBOS 020821Z 0208/0312 03012G20KT P6SM -RA OVC008 FM021300 03014KT 3SM BR OVC008 FM021500 04014KT P6SM OVC015 FM021800 03013KT P6SM BKN025 FM021900 04013KT P6SM BKN050 FM030000 05009KT P6SM SCT250=

USA.gov is the U.S. government's official web portal to all federal, state and local government web resources and services.